| time (UTC) | temp F | wind direction | speed knots | gust knots | rain 1hr in | rain 24hr in | rain mn in | humidity % | barometer mb |
| 20260506232641 | 84 | 121 | 0.9 | 1.7 | 0.00 | 0.00 | 0.00 | 55 | 1009.6 |
| 20260506232137 | 84 | 182 | 0.0 | 0.0 | 0.00 | 0.00 | 0.00 | 54 | 1009.3 |
| 20260506231634 | 85 | 183 | 0.0 | 0.0 | 0.00 | 0.00 | 0.00 | 54 | 1009.2 |
| 20260506231133 | 86 | 183 | 0.0 | 0.0 | 0.00 | 0.00 | 0.00 | 52 | 1009.2 |
| 20260506230629 | 86 | 183 | 0.0 | 0.0 | 0.00 | 0.00 | 0.00 | 50 | 1009.2 |
| 20260506230126 | 87 | 195 | 0.0 | 0.9 | 0.00 | 0.00 | 0.00 | 51 | 1009.4 |
| 20260506225622 | 87 | 163 | 0.9 | 0.9 | 0.00 | 0.00 | 0.00 | 49 | 1009.3 |
| 20260506225119 | 87 | 203 | 1.7 | 2.6 | 0.00 | 0.00 | 0.00 | 48 | 1009.3 |
| 20260506224616 | 87 | 262 | 0.9 | 1.7 | 0.00 | 0.00 | 0.00 | 46 | 1009.2 |
| 20260506224112 | 87 | 216 | 0.9 | 2.6 | 0.00 | 0.00 | 0.00 | 47 | 1009.4 |
| 20260506223608 | 88 | 182 | 0.9 | 0.9 | 0.00 | 0.00 | 0.00 | 46 | 1009.2 |
| 20260506223105 | 88 | 176 | 0.9 | 1.7 | 0.00 | 0.00 | 0.00 | 49 | 1009.4 |
| 20260506222602 | 87 | 239 | 1.7 | 1.7 | 0.00 | 0.00 | 0.00 | 46 | 1009.3 |
| 20260506222058 | 87 | 172 | 0.0 | 0.9 | 0.00 | 0.00 | 0.00 | 50 | 1009.4 |
| 20260506221556 | 87 | 175 | 0.0 | 0.9 | 0.00 | 0.00 | 0.00 | 50 | 1009.5 |
| 20260506221054 | 87 | 169 | 0.0 | 0.0 | 0.00 | 0.00 | 0.00 | 54 | 1009.4 |
| 20260506220549 | 88 | 169 | 0.0 | 0.0 | 0.00 | 0.00 | 0.00 | 52 | 1009.5 |
| 20260506220045 | 88 | 201 | 0.9 | 1.7 | 0.00 | 0.00 | 0.00 | 51 | 1009.6 |
| 20260506215542 | 88 | 177 | 0.9 | 0.9 | 0.00 | 0.00 | 0.00 | 46 | 1009.5 |
| 20260506215038 | 88 | 176 | 0.9 | 0.9 | 0.00 | 0.00 | 0.00 | 46 | 1009.5 |
| 20260506214535 | 89 | 154 | 0.0 | 0.9 | 0.00 | 0.00 | 0.00 | 46 | 1009.4 |
| 20260506214032 | 91 | 211 | 3.5 | 4.3 | 0.00 | 0.00 | 0.00 | 42 | 1009.5 |
| 20260506213530 | 90 | 204 | 2.6 | 4.3 | 0.00 | 0.00 | 0.00 | 42 | 1009.5 |
| 20260506213027 | 90 | 208 | 0.9 | 1.7 | 0.00 | 0.00 | 0.00 | 43 | 1009.4 |
| 20260506212524 | 90 | 165 | 0.0 | 0.0 | 0.00 | 0.00 | 0.00 | 44 | 1009.6 |
| 20260506212019 | 91 | 144 | 2.6 | 2.6 | 0.00 | 0.00 | 0.00 | 43 | 1009.5 |
| 20260506211515 | 92 | 192 | 3.5 | 4.3 | 0.00 | 0.00 | 0.00 | 41 | 1009.5 |
| 20260506211013 | 91 | 181 | 0.9 | 1.7 | 0.00 | 0.00 | 0.00 | 42 | 1009.6 |
| 20260506210509 | 91 | 216 | 7.8 | 9.6 | 0.00 | 0.00 | 0.00 | 40 | 1009.2 |
| 20260506210006 | 90 | 165 | 0.0 | 0.9 | 0.00 | 0.00 | 0.00 | 43 | 1009.5 |
| 20260506205502 | 91 | 168 | 0.9 | 1.7 | 0.00 | 0.00 | 0.00 | 40 | 1009.5 |
| 20260506204957 | 91 | 156 | 0.0 | 0.9 | 0.00 | 0.00 | 0.00 | 41 | 1009.8 |
| 20260506204455 | 92 | 40 | 1.7 | 1.7 | 0.00 | 0.00 | 0.00 | 39 | 1009.7 |
| 20260506203947 | 91 | 341 | 0.9 | 0.9 | 0.00 | 0.00 | 0.00 | 41 | 1009.8 |
| 20260506203444 | 91 | 168 | 1.7 | 2.6 | 0.00 | 0.00 | 0.00 | 42 | 1009.9 |
| 20260506202941 | 92 | 183 | 1.7 | 2.6 | 0.00 | 0.00 | 0.00 | 40 | 1009.8 |
| 20260506202438 | 91 | 182 | 0.9 | 1.7 | 0.00 | 0.00 | 0.00 | 39 | 1009.7 |
| 20260506201934 | 91 | 196 | 1.7 | 1.7 | 0.00 | 0.00 | 0.00 | 42 | 1009.9 |
| 20260506201432 | 91 | 197 | 4.3 | 5.2 | 0.00 | 0.00 | 0.00 | 40 | 1009.8 |
| 20260506200929 | 91 | 61 | 5.2 | 6.1 | 0.00 | 0.00 | 0.00 | 38 | 1009.8 |
| 20260506200425 | 91 | 216 | 1.7 | 1.7 | 0.00 | 0.00 | 0.00 | 40 | 1010.0 |
| 20260506195921 | 91 | 193 | 2.6 | 2.6 | 0.00 | 0.00 | 0.00 | 40 | 1009.9 |
| 20260506195419 | 91 | 201 | 3.5 | 6.1 | 0.00 | 0.00 | 0.00 | 42 | 1009.9 |
| 20260506194915 | 91 | 188 | 1.7 | 1.7 | 0.00 | 0.00 | 0.00 | 40 | 1010.3 |
| 20260506194412 | 91 | 203 | 3.5 | 5.2 | 0.00 | 0.00 | 0.00 | 38 | 1010.2 |
| 20260506193909 | 91 | 192 | 1.7 | 2.6 | 0.00 | 0.00 | 0.00 | 46 | 1010.3 |
| 20260506193406 | 90 | 174 | 1.7 | 1.7 | 0.00 | 0.00 | 0.00 | 41 | 1010.5 |
| 20260506192902 | 91 | 241 | 1.7 | 2.6 | 0.00 | 0.00 | 0.00 | 40 | 1010.5 |
| 20260506192359 | 91 | 202 | 1.7 | 1.7 | 0.00 | 0.00 | 0.00 | 42 | 1010.3 |
| 20260506191856 | 91 | 126 | 0.9 | 1.7 | 0.00 | 0.00 | 0.00 | 41 | 1010.4 |
| 20260506191352 | 90 | 196 | 0.9 | 0.9 | 0.00 | 0.00 | 0.00 | 44 | 1010.4 |
| 20260506190850 | 89 | 169 | 1.7 | 1.7 | 0.00 | 0.00 | 0.00 | 44 | 1010.6 |
| 20260506190346 | 89 | 176 | 0.9 | 0.9 | 0.00 | 0.00 | 0.00 | 44 | 1010.6 |
| 20260506185843 | 89 | 181 | 0.0 | 0.9 | 0.00 | 0.00 | 0.00 | 43 | 1010.8 |
| 20260506185340 | 89 | 223 | 2.6 | 2.6 | 0.00 | 0.00 | 0.00 | 44 | 1010.8 |
| 20260506184837 | 90 | 226 | 2.6 | 4.3 | 0.00 | 0.00 | 0.00 | 43 | 1010.9 |
| 20260506184334 | 90 | 207 | 2.6 | 4.3 | 0.00 | 0.00 | 0.00 | 42 | 1011.0 |
| 20260506183832 | 90 | 202 | 3.5 | 5.2 | 0.00 | 0.00 | 0.00 | 44 | 1010.9 |
| 20260506183326 | 90 | 183 | 1.7 | 2.6 | 0.00 | 0.00 | 0.00 | 43 | 1011.0 |
| 20260506182824 | 90 | 269 | 3.5 | 4.3 | 0.00 | 0.00 | 0.00 | 43 | 1011.0 |
| 20260506182321 | 88 | 185 | 2.6 | 2.6 | 0.00 | 0.00 | 0.00 | 46 | 1011.1 |
| 20260506181819 | 89 | 119 | 2.6 | 2.6 | 0.00 | 0.00 | 0.00 | 43 | 1011.3 |
| 20260506181316 | 89 | 154 | 0.9 | 1.7 | 0.00 | 0.00 | 0.00 | 44 | 1011.3 |
| 20260506180814 | 89 | 71 | 1.7 | 1.7 | 0.00 | 0.00 | 0.00 | 41 | 1011.3 |
| 20260506180309 | 88 | 188 | 1.7 | 1.7 | 0.00 | 0.00 | 0.00 | 48 | 1011.6 |
| 20260506175806 | 89 | 191 | 5.2 | 6.1 | 0.00 | 0.00 | 0.00 | 46 | 1011.5 |
| 20260506175306 | 89 | 168 | 1.7 | 1.7 | 0.00 | 0.00 | 0.00 | 43 | 1011.5 |
| 20260506174800 | 88 | 226 | 1.7 | 2.6 | 0.00 | 0.00 | 0.00 | 46 | 1011.8 |
| 20260506174257 | 88 | 146 | 2.6 | 2.6 | 0.00 | 0.00 | 0.00 | 43 | 1012.0 |
| 20260506173755 | 88 | 164 | 0.9 | 1.7 | 0.00 | 0.00 | 0.00 | 44 | 1012.2 |
| 20260506173251 | 88 | 131 | 3.5 | 7.8 | 0.00 | 0.00 | 0.00 | 46 | 1011.8 |
| 20260506172748 | 87 | 180 | 2.6 | 2.6 | 0.00 | 0.00 | 0.00 | 46 | 1012.2 |
| 20260506172245 | 87 | 114 | 2.6 | 4.3 | 0.00 | 0.00 | 0.00 | 45 | 1012.2 |
| 20260506171743 | 87 | 217 | 4.3 | 7.0 | 0.00 | 0.00 | 0.00 | 48 | 1012.2 |
| 20260506171239 | 86 | 24 | 1.7 | 2.6 | 0.00 | 0.00 | 0.00 | 47 | 1012.5 |
| 20260506170737 | 87 | 71 | 7.0 | 9.6 | 0.00 | 0.00 | 0.00 | 45 | 1012.4 |
| 20260506170233 | 87 | 178 | 2.6 | 4.3 | 0.00 | 0.00 | 0.00 | 47 | 1012.4 |
| 20260506165732 | 87 | 199 | 0.9 | 1.7 | 0.00 | 0.00 | 0.00 | 45 | 1012.6 |
| 20260506165229 | 86 | 171 | 2.6 | 6.1 | 0.00 | 0.00 | 0.00 | 50 | 1012.5 |
| 20260506164726 | 86 | 163 | 3.5 | 4.3 | 0.00 | 0.00 | 0.00 | 46 | 1012.7 |
| 20260506164223 | 85 | 161 | 1.7 | 1.7 | 0.00 | 0.00 | 0.00 | 49 | 1012.8 |
| 20260506163719 | 86 | 216 | 1.7 | 4.3 | 0.00 | 0.00 | 0.00 | 48 | 1013.0 |
| 20260506163214 | 86 | 145 | 3.5 | 4.3 | 0.00 | 0.00 | 0.00 | 49 | 1013.1 |
| 20260506162711 | 86 | 208 | 4.3 | 5.2 | 0.00 | 0.00 | 0.00 | 48 | 1012.9 |
| 20260506162208 | 86 | 183 | 0.0 | 0.9 | 0.00 | 0.00 | 0.00 | 49 | 1012.9 |
| 20260506161705 | 85 | 199 | 2.6 | 4.3 | 0.00 | 0.00 | 0.00 | 54 | 1013.2 |
| 20260506161202 | 85 | 104 | 0.9 | 0.9 | 0.00 | 0.00 | 0.00 | 49 | 1013.0 |
| 20260506160700 | 84 | 223 | 2.6 | 2.6 | 0.00 | 0.00 | 0.00 | 51 | 1013.1 |
| 20260506160156 | 85 | 122 | 5.2 | 6.1 | 0.00 | 0.00 | 0.00 | 48 | 1013.1 |
| 20260506155655 | 84 | 214 | 1.7 | 1.7 | 0.00 | 0.00 | 0.00 | 51 | 1013.2 |
| 20260506155152 | 84 | 146 | 3.5 | 5.2 | 0.00 | 0.00 | 0.00 | 51 | 1013.2 |
| 20260506153300 | 82 | 151 | 0.9 | 1.7 | 0.00 | 0.00 | 0.00 | 52 | 1013.3 |
| 20260506152756 | 83 | 142 | 1.7 | 1.7 | 0.00 | 0.00 | 0.00 | 53 | 1013.0 |
| 20260506152254 | 82 | 172 | 1.7 | 1.7 | 0.00 | 0.00 | 0.00 | 54 | 1013.0 |
| 20260506151753 | 82 | 169 | 0.9 | 1.7 | 0.00 | 0.00 | 0.00 | 52 | 1012.9 |
| 20260506151249 | 81 | 171 | 1.7 | 1.7 | 0.00 | 0.00 | 0.00 | 52 | 1013.3 |
| 20260506150745 | 81 | 158 | 3.5 | 5.2 | 0.00 | 0.00 | 0.00 | 55 | 1013.3 |
| 20260506150243 | 80 | 186 | 1.7 | 2.6 | 0.00 | 0.00 | 0.00 | 55 | 1013.2 |
| 20260506145740 | 81 | 195 | 2.6 | 2.6 | 0.00 | 0.00 | 0.00 | 55 | 1013.5 |
| 20260506145236 | 80 | 238 | 5.2 | 6.1 | 0.00 | 0.00 | 0.00 | 55 | 1013.2 |
| 20260506144734 | 79 | 180 | 2.6 | 4.3 | 0.00 | 0.00 | 0.00 | 56 | 1013.2 |
| 20260506144230 | 79 | 199 | 3.5 | 4.3 | 0.00 | 0.00 | 0.00 | 55 | 1013.0 |
| 20260506143728 | 79 | 211 | 2.6 | 2.6 | 0.00 | 0.00 | 0.00 | 56 | 1013.0 |
| 20260506143225 | 79 | 220 | 2.6 | 2.6 | 0.00 | 0.00 | 0.00 | 55 | 1013.0 |
| 20260506142724 | 79 | 179 | 0.9 | 1.7 | 0.00 | 0.00 | 0.00 | 57 | 1013.0 |
| 20260506142221 | 78 | 192 | 0.9 | 0.9 | 0.00 | 0.00 | 0.00 | 58 | 1012.7 |
| 20260506141719 | 78 | 152 | 0.9 | 1.7 | 0.00 | 0.00 | 0.00 | 61 | 1013.0 |
| 20260506141217 | 77 | 173 | 0.9 | 1.7 | 0.00 | 0.00 | 0.00 | 61 | 1012.8 |
| 20260506140715 | 77 | 198 | 2.6 | 4.3 | 0.00 | 0.00 | 0.00 | 62 | 1013.1 |
| 20260506140211 | 76 | 158 | 0.9 | 1.7 | 0.00 | 0.00 | 0.00 | 60 | 1013.2 |
| 20260506135708 | 76 | 166 | 0.9 | 0.9 | 0.00 | 0.00 | 0.00 | 63 | 1013.0 |
| 20260506135204 | 75 | 202 | 0.9 | 1.7 | 0.00 | 0.00 | 0.00 | 65 | 1012.9 |
| 20260506134701 | 75 | 117 | 0.9 | 1.7 | 0.00 | 0.00 | 0.00 | 64 | 1013.0 |
| 20260506134157 | 74 | 168 | 3.5 | 5.2 | 0.00 | 0.00 | 0.00 | 65 | 1012.7 |
| 20260506133655 | 73 | 198 | 2.6 | 4.3 | 0.00 | 0.00 | 0.00 | 70 | 1012.8 |
| 20260506133151 | 73 | 217 | 3.5 | 5.2 | 0.00 | 0.00 | 0.00 | 69 | 1012.6 |
| 20260506132649 | 73 | 173 | 0.9 | 0.9 | 0.00 | 0.00 | 0.00 | 71 | 1012.4 |
| 20260506132145 | 73 | 217 | 2.6 | 2.6 | 0.00 | 0.00 | 0.00 | 69 | 1012.4 |
| 20260506131643 | 72 | 176 | 0.9 | 1.7 | 0.00 | 0.00 | 0.00 | 73 | 1012.3 |
| 20260506131139 | 72 | 176 | 1.7 | 4.3 | 0.00 | 0.00 | 0.00 | 71 | 1012.7 |
| 20260506130636 | 71 | 189 | 0.9 | 1.7 | 0.00 | 0.00 | 0.00 | 74 | 1012.5 |
| 20260506130133 | 71 | 162 | 0.0 | 0.0 | 0.00 | 0.00 | 0.00 | 74 | 1012.3 |
| 20260506125632 | 71 | 176 | 0.9 | 0.9 | 0.00 | 0.00 | 0.00 | 75 | 1012.2 |
| 20260506125129 | 70 | 142 | 0.9 | 0.9 | 0.00 | 0.00 | 0.00 | 78 | 1012.1 |
| 20260506124627 | 70 | 150 | 1.7 | 1.7 | 0.00 | 0.00 | 0.00 | 79 | 1012.5 |
| 20260506124124 | 69 | 165 | 2.6 | 2.6 | 0.00 | 0.00 | 0.00 | 78 | 1012.4 |
| 20260506123622 | 68 | 132 | 0.9 | 1.7 | 0.00 | 0.00 | 0.00 | 82 | 1012.4 |
| 20260506123120 | 67 | 132 | 0.0 | 0.0 | 0.00 | 0.00 | 0.00 | 83 | 1012.6 |
| 20260506122617 | 66 | 179 | 0.9 | 1.7 | 0.00 | 0.00 | 0.00 | 83 | 1012.7 |
| 20260506122114 | 65 | 173 | 0.0 | 0.0 | 0.00 | 0.00 | 0.00 | 85 | 1012.5 |
| 20260506121612 | 65 | 137 | 0.0 | 0.9 | 0.00 | 0.00 | 0.00 | 86 | 1012.2 |
| 20260506121108 | 64 | 130 | 0.0 | 0.0 | 0.00 | 0.00 | 0.00 | 87 | 1012.3 |
| 20260506120606 | 63 | 143 | 0.0 | 0.0 | 0.00 | 0.00 | 0.00 | 89 | 1012.3 |
| 20260506120103 | 63 | 144 | 0.0 | 0.0 | 0.00 | 0.00 | 0.00 | 89 | 1012.3 |
| 20260506115602 | 62 | 144 | 0.0 | 0.0 | 0.00 | 0.00 | 0.00 | 91 | 1012.4 |
| 20260506115059 | 61 | 145 | 0.0 | 0.0 | 0.00 | 0.00 | 0.00 | 92 | 1012.0 |
| 20260506114556 | 61 | 145 | 0.0 | 0.0 | 0.00 | 0.00 | 0.00 | 94 | 1012.4 |
| 20260506114055 | 61 | 145 | 0.0 | 0.0 | 0.00 | 0.00 | 0.00 | 97 | 1012.2 |
| 20260506113552 | 60 | 145 | 0.0 | 0.0 | 0.00 | 0.00 | 0.00 | 98 | 1012.0 |
| 20260506113049 | 58 | 145 | 0.0 | 0.0 | 0.00 | 0.00 | 0.00 | 98 | 1012.1 |
| 20260506112546 | 58 | 146 | 0.0 | 0.0 | 0.00 | 0.00 | 0.00 | 97 | 1012.2 |
| 20260506112043 | 57 | 146 | 0.0 | 0.0 | 0.00 | 0.00 | 0.00 | 97 | 1012.0 |
| 20260506111541 | 57 | 146 | 0.0 | 0.0 | 0.00 | 0.00 | 0.00 | 97 | 1012.0 |
| 20260506111038 | 57 | 146 | 0.0 | 0.0 | 0.00 | 0.00 | 0.00 | 97 | 1011.8 |
| 20260506110536 | 57 | 146 | 0.0 | 0.0 | 0.00 | 0.00 | 0.00 | 97 | 1011.9 |
| 20260506110033 | 57 | 146 | 0.0 | 0.0 | 0.00 | 0.00 | 0.00 | 97 | 1012.0 |
| 20260506105529 | 57 | 146 | 0.0 | 0.0 | 0.00 | 0.00 | 0.00 | 97 | 1011.7 |
| 20260506105026 | 57 | 146 | 0.0 | 0.0 | 0.00 | 0.00 | 0.00 | 97 | 1011.5 |
| 20260506104524 | 57 | 146 | 0.0 | 0.0 | 0.00 | 0.00 | 0.00 | 97 | 1011.3 |
| 20260506104022 | 57 | 146 | 0.0 | 0.0 | 0.00 | 0.00 | 0.00 | 97 | 1011.3 |
| 20260506103519 | 57 | 146 | 0.0 | 0.0 | 0.00 | 0.00 | 0.00 | 97 | 1011.4 |
| 20260506103015 | 57 | 146 | 0.0 | 0.0 | 0.00 | 0.00 | 0.00 | 97 | 1011.1 |
| 20260506102514 | 57 | 146 | 0.0 | 0.0 | 0.00 | 0.00 | 0.00 | 97 | 1011.3 |
| 20260506102011 | 57 | 146 | 0.0 | 0.0 | 0.00 | 0.00 | 0.00 | 97 | 1011.1 |
| 20260506101507 | 57 | 146 | 0.0 | 0.0 | 0.00 | 0.00 | 0.00 | 97 | 1011.4 |
| 20260506101005 | 57 | 146 | 0.0 | 0.0 | 0.00 | 0.00 | 0.00 | 97 | 1011.5 |
| 20260506100503 | 57 | 146 | 0.0 | 0.0 | 0.00 | 0.00 | 0.00 | 96 | 1011.6 |
| 20260506100001 | 57 | 146 | 0.0 | 0.0 | 0.00 | 0.00 | 0.00 | 96 | 1011.4 |
| 20260506095459 | 57 | 146 | 0.0 | 0.0 | 0.00 | 0.00 | 0.00 | 96 | 1011.6 |
| 20260506094954 | 57 | 146 | 0.0 | 0.0 | 0.00 | 0.00 | 0.00 | 96 | 1011.3 |
| 20260506094453 | 57 | 146 | 0.0 | 0.0 | 0.00 | 0.00 | 0.00 | 96 | 1011.5 |
| 20260506093950 | 58 | 146 | 0.0 | 0.0 | 0.00 | 0.00 | 0.00 | 96 | 1011.4 |
| 20260506093449 | 58 | 146 | 0.0 | 0.0 | 0.00 | 0.00 | 0.00 | 96 | 1011.6 |
| 20260506092946 | 57 | 146 | 0.0 | 0.0 | 0.00 | 0.00 | 0.00 | 96 | 1011.7 |
| 20260506092444 | 58 | 146 | 0.0 | 0.0 | 0.00 | 0.00 | 0.00 | 96 | 1011.8 |
| 20260506091940 | 58 | 146 | 0.0 | 0.0 | 0.00 | 0.00 | 0.00 | 96 | 1011.6 |
| 20260506091438 | 58 | 146 | 0.0 | 0.0 | 0.00 | 0.00 | 0.00 | 96 | 1011.7 |
| 20260506090935 | 58 | 146 | 0.0 | 0.0 | 0.00 | 0.00 | 0.00 | 96 | 1011.4 |
| 20260506090433 | 58 | 146 | 0.0 | 0.0 | 0.00 | 0.00 | 0.00 | 96 | 1011.5 |
| 20260506085929 | 58 | 146 | 0.0 | 0.0 | 0.00 | 0.00 | 0.00 | 96 | 1011.4 |
| 20260506085426 | 58 | 146 | 0.0 | 0.0 | 0.00 | 0.00 | 0.00 | 96 | 1011.4 |
| 20260506084922 | 58 | 146 | 0.0 | 0.0 | 0.00 | 0.00 | 0.00 | 96 | 1011.4 |
| 20260506084420 | 58 | 146 | 0.0 | 0.0 | 0.00 | 0.00 | 0.00 | 96 | 1011.4 |
| 20260506083915 | 58 | 146 | 0.0 | 0.0 | 0.00 | 0.00 | 0.00 | 96 | 1011.3 |
| 20260506083413 | 58 | 146 | 0.0 | 0.0 | 0.00 | 0.00 | 0.00 | 95 | 1011.4 |
| 20260506082910 | 58 | 147 | 0.0 | 0.0 | 0.00 | 0.00 | 0.00 | 95 | 1011.6 |
| 20260506082407 | 58 | 146 | 0.0 | 0.0 | 0.00 | 0.00 | 0.00 | 95 | 1011.4 |
| 20260506081903 | 58 | 146 | 0.0 | 0.0 | 0.00 | 0.00 | 0.00 | 95 | 1011.3 |
| 20260506081401 | 58 | 146 | 0.0 | 0.0 | 0.00 | 0.00 | 0.00 | 95 | 1011.4 |
| 20260506080858 | 58 | 146 | 0.0 | 0.0 | 0.00 | 0.00 | 0.00 | 95 | 1011.6 |
| 20260506080355 | 58 | 146 | 0.0 | 0.0 | 0.00 | 0.00 | 0.00 | 95 | 1011.5 |
| 20260506073339 | 58 | 146 | 0.0 | 0.0 | 0.00 | 0.00 | 0.00 | 94 | 1011.2 |
| 20260506072836 | 59 | 146 | 0.0 | 0.0 | 0.00 | 0.00 | 0.00 | 94 | 1011.2 |
| 20260506072334 | 58 | 146 | 0.0 | 0.0 | 0.00 | 0.00 | 0.00 | 94 | 1011.1 |
| 20260506071831 | 58 | 146 | 0.0 | 0.0 | 0.00 | 0.00 | 0.00 | 94 | 1011.5 |
| 20260506071329 | 58 | 146 | 0.0 | 0.0 | 0.00 | 0.00 | 0.00 | 95 | 1011.4 |
| 20260506070825 | 58 | 147 | 0.0 | 0.0 | 0.00 | 0.00 | 0.00 | 94 | 1011.5 |
| 20260506070323 | 58 | 147 | 0.0 | 0.0 | 0.00 | 0.00 | 0.00 | 94 | 1011.4 |
| 20260506062300 | 59 | 146 | 0.0 | 0.0 | 0.00 | 0.00 | 0.00 | 93 | 1011.6 |
| 20260506061755 | 59 | 153 | 0.0 | 0.0 | 0.00 | 0.00 | 0.00 | 94 | 1011.5 |
| 20260506061253 | 59 | 152 | 0.0 | 0.0 | 0.00 | 0.00 | 0.00 | 94 | 1011.7 |
| 20260506060751 | 59 | 153 | 0.0 | 0.0 | 0.00 | 0.00 | 0.00 | 94 | 1011.6 |
| 20260506060249 | 59 | 153 | 0.0 | 0.0 | 0.00 | 0.00 | 0.00 | 94 | 1011.8 |
| 20260506051220 | 59 | 153 | 0.0 | 0.0 | 0.00 | 0.00 | 0.00 | 93 | 1012.2 |
| 20260506050718 | 59 | 153 | 0.0 | 0.0 | 0.00 | 0.00 | 0.00 | 93 | 1012.3 |
| 20260506050215 | 59 | 153 | 0.0 | 0.0 | 0.00 | 0.00 | 0.00 | 93 | 1012.4 |
| 20260506044706 | 59 | 153 | 0.0 | 0.0 | 0.00 | 0.00 | 0.00 | 92 | 1012.4 |
| 20260506044203 | 59 | 153 | 0.0 | 0.0 | 0.00 | 0.00 | 0.00 | 92 | 1012.6 |
| 20260506043700 | 60 | 153 | 0.0 | 0.0 | 0.00 | 0.00 | 0.00 | 92 | 1012.4 |
| 20260506043158 | 60 | 153 | 0.0 | 0.0 | 0.00 | 0.00 | 0.00 | 91 | 1012.4 |
| 20260506042657 | 60 | 153 | 0.0 | 0.0 | 0.00 | 0.00 | 0.00 | 91 | 1012.4 |
| 20260506042155 | 60 | 153 | 0.0 | 0.0 | 0.00 | 0.00 | 0.00 | 91 | 1012.3 |
| 20260506041653 | 60 | 153 | 0.0 | 0.0 | 0.00 | 0.00 | 0.00 | 90 | 1012.3 |
| 20260506041149 | 60 | 153 | 0.0 | 0.0 | 0.00 | 0.00 | 0.00 | 90 | 1012.4 |
| 20260506040647 | 60 | 153 | 0.0 | 0.0 | 0.00 | 0.00 | 0.00 | 90 | 1012.4 |
| 20260506040144 | 60 | 153 | 0.0 | 0.0 | 0.00 | 0.00 | 0.00 | 89 | 1012.5 |
| 20260506035641 | 60 | 153 | 0.0 | 0.0 | 0.00 | 0.00 | 0.00 | 89 | 1012.4 |
| 20260506035137 | 60 | 153 | 0.0 | 0.0 | 0.00 | 0.00 | 0.00 | 89 | 1012.4 |
| 20260506034635 | 61 | 153 | 0.0 | 0.0 | 0.00 | 0.00 | 0.00 | 89 | 1012.4 |
| 20260506034132 | 61 | 153 | 0.0 | 0.0 | 0.00 | 0.00 | 0.00 | 89 | 1012.3 |
| 20260506033629 | 61 | 153 | 0.0 | 0.0 | 0.00 | 0.00 | 0.00 | 89 | 1012.3 |
| 20260506033126 | 61 | 153 | 0.0 | 0.0 | 0.00 | 0.00 | 0.00 | 89 | 1012.4 |
| 20260506032623 | 61 | 153 | 0.0 | 0.0 | 0.00 | 0.00 | 0.00 | 88 | 1012.7 |
| 20260506032120 | 61 | 153 | 0.0 | 0.0 | 0.00 | 0.00 | 0.00 | 87 | 1012.6 |
| 20260506031617 | 61 | 153 | 0.0 | 0.0 | 0.00 | 0.00 | 0.00 | 87 | 1012.6 |
| 20260506031114 | 61 | 153 | 0.0 | 0.0 | 0.00 | 0.00 | 0.00 | 87 | 1012.7 |
| 20260506030612 | 61 | 153 | 0.0 | 0.0 | 0.00 | 0.00 | 0.00 | 86 | 1012.7 |
| 20260506030109 | 62 | 153 | 0.0 | 0.0 | 0.00 | 0.00 | 0.00 | 86 | 1012.7 |
| 20260506025606 | 62 | 153 | 0.0 | 0.0 | 0.00 | 0.00 | 0.00 | 85 | 1012.6 |
| 20260506025102 | 62 | 153 | 0.0 | 0.0 | 0.00 | 0.00 | 0.00 | 84 | 1012.6 |
| 20260506024559 | 62 | 153 | 0.0 | 0.0 | 0.00 | 0.00 | 0.00 | 83 | 1012.7 |
| 20260506024056 | 63 | 153 | 0.0 | 0.0 | 0.00 | 0.00 | 0.00 | 83 | 1012.6 |
| 20260506023551 | 63 | 153 | 0.0 | 0.0 | 0.00 | 0.00 | 0.00 | 82 | 1012.4 |
| 20260506023049 | 63 | 153 | 0.0 | 0.0 | 0.00 | 0.00 | 0.00 | 81 | 1012.5 |
| 20260506022541 | 64 | 153 | 0.0 | 0.0 | 0.00 | 0.00 | 0.00 | 80 | 1012.4 |
| 20260506022038 | 64 | 153 | 0.0 | 0.0 | 0.00 | 0.00 | 0.00 | 79 | 1012.3 |
| 20260506021535 | 64 | 152 | 0.9 | 0.9 | 0.00 | 0.00 | 0.00 | 78 | 1012.2 |
| 20260506021033 | 65 | 134 | 0.0 | 0.0 | 0.00 | 0.00 | 0.00 | 77 | 1012.1 |
| 20260506020530 | 65 | 133 | 0.0 | 0.0 | 0.00 | 0.00 | 0.00 | 76 | 1011.9 |
| 20260506020027 | 66 | 144 | 0.0 | 0.0 | 0.00 | 0.00 | 0.00 | 75 | 1012.1 |
| 20260506015525 | 66 | 144 | 0.0 | 0.0 | 0.00 | 0.00 | 0.00 | 74 | 1012.2 |
| 20260506015022 | 66 | 141 | 0.0 | 0.9 | 0.00 | 0.00 | 0.00 | 74 | 1012.0 |
| 20260506014519 | 66 | 171 | 0.0 | 0.0 | 0.00 | 0.00 | 0.00 | 73 | 1011.9 |
| 20260506014015 | 67 | 136 | 0.9 | 0.9 | 0.00 | 0.00 | 0.00 | 73 | 1012.0 |
| 20260506013513 | 67 | 157 | 0.0 | 0.0 | 0.00 | 0.00 | 0.00 | 73 | 1011.9 |
| 20260506013010 | 67 | 147 | 0.0 | 0.0 | 0.00 | 0.00 | 0.00 | 72 | 1012.0 |
| 20260506012505 | 67 | 158 | 0.0 | 0.0 | 0.00 | 0.00 | 0.00 | 72 | 1012.0 |
| 20260506012003 | 68 | 154 | 0.0 | 0.9 | 0.00 | 0.00 | 0.00 | 71 | 1011.8 |
| 20260506011500 | 68 | 138 | 0.9 | 0.9 | 0.00 | 0.00 | 0.00 | 70 | 1011.7 |
| 20260506010956 | 68 | 154 | 0.0 | 0.0 | 0.00 | 0.00 | 0.00 | 69 | 1011.6 |
| 20260506010456 | 68 | 140 | 0.0 | 0.0 | 0.00 | 0.00 | 0.00 | 69 | 1011.5 |
| 20260506005951 | 68 | 172 | 0.0 | 0.0 | 0.00 | 0.00 | 0.00 | 69 | 1011.9 |
| 20260506005449 | 68 | 181 | 0.9 | 1.7 | 0.00 | 0.00 | 0.00 | 69 | 1011.8 |
| 20260506004944 | 68 | 139 | 0.0 | 0.9 | 0.00 | 0.00 | 0.00 | 68 | 1011.9 |
| 20260506004442 | 69 | 169 | 0.0 | 0.9 | 0.00 | 0.00 | 0.00 | 68 | 1011.7 |
| 20260506003938 | 69 | 154 | 0.9 | 1.7 | 0.00 | 0.00 | 0.00 | 68 | 1011.6 |
| 20260506003435 | 69 | 186 | 0.9 | 0.9 | 0.00 | 0.00 | 0.00 | 67 | 1011.6 |
| 20260506002931 | 70 | 168 | 0.0 | 0.0 | 0.00 | 0.00 | 0.00 | 66 | 1011.5 |
| 20260506002427 | 70 | 153 | 0.9 | 0.9 | 0.00 | 0.00 | 0.00 | 65 | 1011.4 |
| 20260506001923 | 70 | 113 | 0.0 | 0.0 | 0.00 | 0.00 | 0.00 | 65 | 1011.5 |
| 20260506001420 | 71 | 175 | 0.0 | 0.9 | 0.00 | 0.00 | 0.00 | 64 | 1011.3 |
| 20260506000917 | 71 | 128 | 0.9 | 0.9 | 0.00 | 0.00 | 0.00 | 63 | 1011.2 |
| 20260506000416 | 71 | 191 | 2.6 | 2.6 | 0.00 | 0.00 | 0.00 | 63 | 1011.2 |
| 20260505235911 | 72 | 149 | 0.9 | 1.7 | 0.00 | 0.00 | 0.00 | 62 | 1011.2 |
| 20260505235410 | 72 | 162 | 0.0 | 0.9 | 0.00 | 0.00 | 0.00 | 61 | 1011.2 |
| 20260505234906 | 72 | 133 | 1.7 | 1.7 | 0.00 | 0.00 | 0.00 | 60 | 1011.2 |
| 20260505234404 | 73 | 104 | 2.6 | 2.6 | 0.00 | 0.00 | 0.00 | 59 | 1011.2 |
| 20260505233900 | 73 | 175 | 0.9 | 1.7 | 0.00 | 0.00 | 0.00 | 59 | 1011.0 |
| 20260505233358 | 73 | 148 | 5.2 | 6.1 | 0.00 | 0.00 | 0.00 | 58 | 1011.0 |
| 20260505232855 | 74 | 56 | 1.7 | 1.7 | 0.00 | 0.00 | 0.00 | 57 | 1011.3 |